Regional Weather Roundup
Issued by NWS

Home | Current Version | Previous Version | Graphics & Text | Print | Product List | Glossary On
Versions: 1 2 3 4 5 6 7 8 9 10 11 12 13 14 15 16 17 18 19 20 21 22 23 24 25 26 27 28 29 30 31 32 33 34 35 36 37 38 39 40 41 42 43 44 45 46 47 48 49 50
000
ASUS43 KLMK 262210
RWRKY
KENTUCKY REGIONAL WEATHER ROUNDUP
NATIONAL WEATHER SERVICE LOUISVILLE KY
600 PM EDT TUE MAY 26 2015

NOTE "FAIR" INDICATES FEW OR NO CLOUDS BELOW 12,000 FEET
WITH NO SIGNIFICANT WEATHER AND/OR OBSTRUCTIONS TO VISIBILITY.

KYZ001>023-026-027-061>063-070>075-262300-
WESTERN AND SOUTH CENTRAL KENTUCKY

CITY           SKY/WX    TMP DP  RH WIND       PRES   REMARKS
PADUCAH        CLOUDY    75  63  66 W12G21    29.99S
HENDERSON      PTSUNNY   77  61  57 SW13      29.97R
OWENSBORO      PTSUNNY   81  66  60 SW12G18   29.98F
HOPKINSVILLE   PTSUNNY   79  66  64 SW14      30.01R
BOWLING GREEN  CLOUDY    73  67  81 S8        30.03F
GLASGOW        CLOUDY    67  67  98 S6        30.05F
$$

KYZ024-025-028>034-038-045-046-053-262300-
NORTH CENTRAL KENTUCKY

CITY           SKY/WX    TMP DP  RH WIND       PRES   REMARKS
LOUISVILLE/SDF LGT RAIN  73  68  84 S12       30.00F
LOUISVILLE/LOU LGT RAIN  73  68  84 S10G18    30.02R
FORT KNOX      LGT RAIN  70  66  88 S13       30.00F
$$

KYZ035>037-039>044-047>052-055>060-089>105-262300-
NORTHEAST KENTUCKY

CITY           SKY/WX    TMP DP  RH WIND       PRES   REMARKS
LEXINGTON      LGT RAIN  70  68  93 W10       30.04R FOG
COVINGTON      LGT RAIN  73  68  84 SW10      30.01S
FRANKFORT      CLOUDY    75  67  76 SW13G21   30.02S
$$

KYZ054-064>069-076>088-106>120-262300-
SOUTHEAST KENTUCKY

CITY           SKY/WX    TMP DP  RH WIND       PRES   REMARKS
JACKSON        MOSUNNY   83  64  52 VRB7      30.08F
LONDON         MOSUNNY   84  61  45 S13G22    30.07S
SOMERSET       CLOUDY    81  63  54 S10G17    30.05F
MIDDLESBORO    TSTM      80  67  63 SW9       30.10F
MONTICELLO     MOCLDY    85  67  54 S10G21    30.06F
$$




USA.gov is the U.S. government's official web portal to all federal, state and local government web resources and services.